FW8032 Weather Reports


Display with metric or nautical units.
time (UTC)temp
F
wind
direction
speed
MPH
gust
MPH
rain 1hr
in
rain 24hr
in
rain mn
in
humidity
%
barometer
mb
20260906181248 95 348 1.0 1.0 0.00 0.00 0.00 35 1014.7
20260906180743 95 46 0.0 0.0 0.00 0.00 0.00 36 1014.7
20260906180238 95 46 0.0 0.0 0.00 0.00 0.00 35 1015.4
20260906175735 96 110 0.0 0.0 0.00 0.00 0.00 36 1015.0
20260906175231 96 110 0.0 0.0 0.00 0.00 0.00 34 1015.0
20260906174729 99 94 2.0 2.0 0.00 0.00 0.00 35 1015.4
20260906174224 98 18 0.0 0.0 0.00 0.00 0.00 34 1015.4
20260906173719 97 90 0.0 0.0 0.00 0.00 0.00 37 1015.7
20260906173215 96 18 2.0 2.0 0.00 0.00 0.00 36 1015.7
20260906172714 98 332 2.0 2.0 0.00 0.00 0.00 36 1015.7
20260906172209 97 91 2.0 2.0 0.00 0.00 0.00 38 1015.7
20260906171704 96 163 0.0 0.0 0.00 0.00 0.00 37 1016.0
20260906171159 98 172 0.0 0.0 0.00 0.00 0.00 38 1016.0
20260906170656 96 114 2.0 2.0 0.00 0.00 0.00 38 1016.0
20260906170155 96 143 0.0 0.0 0.00 0.00 0.00 39 1016.0
20260906165651 97 91 0.0 0.0 0.00 0.00 0.00 39 1016.0
20260906165147 96 107 2.0 2.0 0.00 0.00 0.00 40 1016.4
20260906164645 95 84 0.0 0.0 0.00 0.00 0.00 41 1016.4
20260906164141 93 90 0.0 0.0 0.00 0.00 0.00 41 1016.4
20260906163637 93 72 0.0 0.0 0.00 0.00 0.00 41 1016.4
20260906163133 94 66 0.0 0.0 0.00 0.00 0.00 42 1016.4
20260906162630 92 95 2.0 2.0 0.00 0.00 0.00 43 1016.4
20260906162129 92 60 0.0 0.0 0.00 0.00 0.00 45 1016.4
20260906161630 91 61 0.0 0.0 0.00 0.00 0.00 45 1016.4
20260906161128 92 336 1.0 1.0 0.00 0.00 0.00 46 1016.7
20260906160627 92 348 0.0 0.0 0.00 0.00 0.00 45 1016.4
20260906160127 93 10 1.0 1.0 0.00 0.00 0.00 46 1016.4
20260906155624 91 1 2.0 2.0 0.00 0.00 0.00 48 1016.4
20260906155120 94 11 0.0 0.0 0.00 0.00 0.00 49 1016.4
20260906154615 93 11 0.0 0.0 0.00 0.00 0.00 49 1016.4
20260906154115 93 28 2.0 2.0 0.00 0.00 0.00 50 1016.4
20260906153614 92 258 2.0 2.0 0.00 0.00 0.00 52 1016.4
20260906153108 91 258 0.0 0.0 0.00 0.00 0.00 53 1016.4
20260906152603 88 258 1.0 1.0 0.00 0.00 0.00 53 1016.4
20260906152057 89 258 2.0 2.0 0.00 0.00 0.00 53 1016.4
20260906151552 88 258 0.0 0.0 0.00 0.00 0.00 54 1016.4
20260906151048 86 258 0.0 0.0 0.00 0.00 0.00 55 1016.0
20260906150543 90 258 2.0 2.0 0.00 0.00 0.00 56 1016.4
20260906150038 88 252 2.0 2.0 0.00 0.00 0.00 55 1016.4
20260906145537 86 195 0.0 0.0 0.00 0.00 0.00 55 1016.4
20260906145032 85 181 2.0 2.0 0.00 0.00 0.00 56 1016.4
20260906144526 88 181 2.0 2.0 0.00 0.00 0.00 57 1016.4
20260906144022 88 181 2.0 2.0 0.00 0.00 0.00 57 1016.4
20260906143517 88 181 2.0 2.0 0.00 0.00 0.00 57 1016.4
20260906143013 88 276 0.0 0.0 0.00 0.00 0.00 58 1016.0
20260906142507 87 276 0.0 0.0 0.00 0.00 0.00 59 1016.4
20260906142003 86 276 1.0 1.0 0.00 0.00 0.00 61 1016.0
20260906141501 85 276 1.0 1.0 0.00 0.00 0.00 62 1016.4
20260906140957 85 159 2.0 2.0 0.00 0.00 0.00 63 1016.4
20260906140450 84 166 2.0 2.0 0.00 0.00 0.00 63 1016.4
20260906135949 84 168 1.0 1.0 0.00 0.00 0.00 65 1016.0
20260906135448 83 168 2.0 2.0 0.00 0.00 0.00 65 1016.4
20260906134943 83 168 2.0 2.0 0.00 0.00 0.00 66 1016.0
20260906134438 82 156 0.0 0.0 0.00 0.00 0.00 68 1016.0
20260906133939 82 156 2.0 2.0 0.00 0.00 0.00 68 1016.4
20260906133435 81 156 0.0 0.0 0.00 0.00 0.00 69 1016.0
20260906132930 81 156 0.0 0.0 0.00 0.00 0.00 70 1015.7
20260906132425 80 156 0.0 0.0 0.00 0.00 0.00 70 1015.7
20260906131921 80 156 2.0 2.0 0.00 0.00 0.00 71 1015.7
20260906131416 79 156 0.0 0.0 0.00 0.00 0.00 73 1015.7
20260906130912 78 156 0.0 0.0 0.00 0.00 0.00 73 1015.7
20260906130411 78 156 2.0 2.0 0.00 0.00 0.00 74 1015.7
20260906125911 77 156 2.0 2.0 0.00 0.00 0.00 75 1015.7
20260906125408 77 156 2.0 2.0 0.00 0.00 0.00 76 1015.7
20260906124902 76 156 2.0 2.0 0.00 0.00 0.00 77 1015.7
20260906124359 76 174 3.0 3.0 0.00 0.00 0.00 78 1015.4
20260906123858 76 143 3.0 3.0 0.00 0.00 0.00 78 1015.4
20260906123353 75 143 2.0 2.0 0.00 0.00 0.00 79 1015.4
20260906122853 75 132 3.0 3.0 0.00 0.00 0.00 80 1015.4
20260906122353 75 116 2.0 2.0 0.00 0.00 0.00 81 1015.4
20260906121850 74 114 2.0 2.0 0.00 0.00 0.00 82 1015.4
20260906121345 74 114 1.0 1.0 0.00 0.00 0.00 84 1015.0
20260906120841 73 114 2.0 2.0 0.00 0.00 0.00 85 1015.4
20260906120337 73 114 2.0 2.0 0.00 0.00 0.00 85 1015.0
20260906115833 74 62 0.0 0.0 0.00 0.00 0.00 86 1015.0
20260906115328 74 62 0.0 0.0 0.00 0.00 0.00 85 1015.0
20260906114827 74 62 0.0 0.0 0.00 0.00 0.00 84 1015.0
20260906114323 74 62 0.0 0.0 0.00 0.00 0.00 84 1015.0
20260906113818 74 62 0.0 0.0 0.00 0.00 0.00 83 1015.4
20260906113317 74 62 0.0 0.0 0.00 0.00 0.00 83 1015.0
20260906112813 74 62 0.0 0.0 0.00 0.00 0.00 84 1014.7
20260906112309 74 62 0.0 0.0 0.00 0.00 0.00 84 1015.0
20260906111808 74 62 0.0 0.0 0.00 0.00 0.00 84 1015.0
20260906111307 74 62 0.0 0.0 0.00 0.00 0.00 84 1015.0
20260906110803 75 62 0.0 0.0 0.00 0.00 0.00 84 1015.0
20260906110259 75 62 0.0 0.0 0.00 0.00 0.00 83 1015.0
20260906105758 75 62 0.0 0.0 0.00 0.00 0.00 83 1015.0
20260906105254 75 62 0.0 0.0 0.00 0.00 0.00 82 1014.7
20260906104749 75 62 0.0 0.0 0.00 0.00 0.00 82 1015.0
20260906104247 75 62 0.0 0.0 0.00 0.00 0.00 81 1015.0
20260906103746 75 62 0.0 0.0 0.00 0.00 0.00 81 1015.0
20260906103240 76 62 0.0 0.0 0.00 0.00 0.00 81 1014.7
20260906102736 76 62 0.0 0.0 0.00 0.00 0.00 81 1014.7
20260906102234 76 62 0.0 0.0 0.00 0.00 0.00 80 1014.7
20260906101730 76 62 0.0 0.0 0.00 0.00 0.00 80 1014.7
20260906101225 76 62 0.0 0.0 0.00 0.00 0.00 80 1015.0
20260906100720 76 62 0.0 0.0 0.00 0.00 0.00 80 1014.7
20260906100215 76 62 0.0 0.0 0.00 0.00 0.00 79 1014.7
20260906095714 77 62 0.0 0.0 0.00 0.00 0.00 79 1014.7
20260906095210 77 62 0.0 0.0 0.00 0.00 0.00 79 1014.7
20260906094708 77 62 0.0 0.0 0.00 0.00 0.00 79 1014.2
20260906094204 77 62 0.0 0.0 0.00 0.00 0.00 79 1014.7
20260906093701 77 62 0.0 0.0 0.00 0.00 0.00 79 1014.2
20260906093156 77 62 0.0 0.0 0.00 0.00 0.00 79 1014.2
20260906092651 77 62 0.0 0.0 0.00 0.00 0.00 77 1014.2
20260906092150 77 62 0.0 0.0 0.00 0.00 0.00 77 1014.2
20260906091647 78 62 0.0 0.0 0.00 0.00 0.00 76 1014.2
20260906091143 78 62 0.0 0.0 0.00 0.00 0.00 74 1014.2
20260906090639 78 62 0.0 0.0 0.00 0.00 0.00 74 1014.2
20260906090138 78 62 0.0 0.0 0.00 0.00 0.00 74 1014.2
20260906085637 78 62 0.0 0.0 0.00 0.00 0.00 74 1014.2
20260906085131 78 62 0.0 0.0 0.00 0.00 0.00 73 1014.2
20260906084626 79 62 0.0 0.0 0.00 0.00 0.00 73 1014.2
20260906084125 79 62 0.0 0.0 0.00 0.00 0.00 72 1014.2
20260906083620 79 62 0.0 0.0 0.00 0.00 0.00 72 1014.2
20260906083115 79 62 1.0 1.0 0.00 0.00 0.00 71 1014.2
20260906082611 79 66 2.0 2.0 0.00 0.00 0.00 72 1014.2
20260906082106 79 105 0.0 0.0 0.00 0.00 0.00 74 1013.9
20260906081602 79 105 0.0 0.0 0.00 0.00 0.00 73 1013.9
20260906081057 79 105 0.0 0.0 0.00 0.00 0.00 71 1014.2
20260906080554 79 105 0.0 0.0 0.00 0.00 0.00 71 1013.9
20260906080049 79 105 0.0 0.0 0.00 0.00 0.00 73 1013.9
20260906075543 79 105 0.0 0.0 0.00 0.00 0.00 72 1013.9
20260906075038 79 105 0.0 0.0 0.00 0.00 0.00 75 1013.9
20260906074533 79 105 0.0 0.0 0.00 0.00 0.00 75 1013.9
20260906074031 79 105 0.0 0.0 0.00 0.00 0.00 75 1014.2
20260906073526 79 105 0.0 0.0 0.00 0.00 0.00 74 1014.2
20260906073023 80 105 2.0 2.0 0.00 0.00 0.00 72 1013.9
20260906072517 81 105 0.0 0.0 0.00 0.00 0.00 70 1014.2
20260906072014 81 105 0.0 0.0 0.00 0.00 0.00 67 1013.9
20260906071509 82 105 0.0 0.0 0.00 0.00 0.00 66 1014.2
20260906071005 82 105 0.0 0.0 0.00 0.00 0.00 65 1014.2
20260906070501 83 105 0.0 0.0 0.00 0.00 0.00 64 1013.9
20260906065956 83 105 0.0 0.0 0.00 0.00 0.00 64 1013.9
20260906065455 83 105 0.0 0.0 0.00 0.00 0.00 63 1013.9
20260906064951 82 105 0.0 0.0 0.00 0.00 0.00 64 1013.9
20260906064447 82 105 0.0 0.0 0.00 0.00 0.00 65 1013.9
20260906063942 82 105 0.0 0.0 0.00 0.00 0.00 66 1014.2
20260906063438 82 105 0.0 0.0 0.00 0.00 0.00 66 1014.2
20260906062938 82 105 1.0 1.0 0.00 0.00 0.00 68 1014.2
20260906062433 83 105 0.0 0.0 0.00 0.00 0.00 66 1014.2
20260906061927 83 105 0.0 0.0 0.00 0.00 0.00 66 1014.7
20260906061424 82 105 0.0 0.0 0.00 0.00 0.00 66 1014.7
20260906060918 82 105 0.0 0.0 0.00 0.00 0.00 66 1014.7
20260906060415 82 105 0.0 0.0 0.00 0.00 0.00 67 1014.7
20260906055911 82 105 0.0 0.0 0.00 0.00 0.00 68 1014.7
20260906055407 82 105 0.0 0.0 0.00 0.00 0.00 68 1014.7
20260906054902 82 105 0.0 0.0 0.00 0.00 0.00 69 1014.7
20260906054357 82 105 2.0 2.0 0.00 0.00 0.00 69 1014.7
20260906053853 82 162 0.0 0.0 0.00 0.00 0.00 70 1014.7
20260906053349 82 172 2.0 2.0 0.00 0.00 0.00 71 1014.7
20260906052844 82 150 2.0 2.0 0.00 0.00 0.00 68 1014.7
20260906052340 82 150 0.0 0.0 0.00 0.00 0.00 67 1014.7
20260906051837 82 150 0.0 0.0 0.00 0.00 0.00 67 1014.7
20260906051336 82 150 0.0 0.0 0.00 0.00 0.00 69 1014.2
20260906050832 83 150 0.0 0.0 0.00 0.00 0.00 69 1014.2
20260906050327 83 153 1.0 1.0 0.00 0.00 0.00 67 1014.2
20260906045826 84 155 0.0 0.0 0.00 0.00 0.00 66 1014.7
20260906045320 83 156 0.0 0.0 0.00 0.00 0.00 65 1014.2
20260906044817 83 156 0.0 0.0 0.00 0.00 0.00 65 1014.2
20260906044317 83 156 0.0 0.0 0.00 0.00 0.00 65 1014.2
20260906043813 83 156 0.0 0.0 0.00 0.00 0.00 67 1014.2
20260906043309 83 156 0.0 0.0 0.00 0.00 0.00 66 1014.2
20260906042803 83 156 0.0 0.0 0.00 0.00 0.00 67 1014.2
20260906042306 83 156 0.0 0.0 0.00 0.00 0.00 67 1014.2
20260906041758 83 156 0.0 0.0 0.00 0.00 0.00 67 1014.2
20260906041253 83 156 0.0 0.0 0.00 0.00 0.00 67 1014.2
20260906040748 83 156 0.0 0.0 0.00 0.00 0.00 67 1014.2
20260906040243 83 156 0.0 0.0 0.00 0.00 0.00 65 1014.7
20260906035738 84 156 0.0 0.0 0.00 0.00 0.00 66 1014.7
20260906035234 85 156 1.0 1.0 0.00 0.00 0.00 64 1014.7
20260906034734 85 156 0.0 0.0 0.00 0.00 0.00 60 1014.2
20260906034229 85 156 0.0 0.0 0.00 0.00 0.00 60 1013.9
20260906033725 85 156 0.0 0.0 0.00 0.00 0.00 59 1013.9
20260906033224 85 156 0.0 0.0 0.00 0.00 0.00 58 1014.2
20260906032721 84 156 0.0 0.0 0.00 0.00 0.00 60 1014.2
20260906032221 84 156 0.0 0.0 0.00 0.00 0.00 63 1014.2
20260906031716 85 156 0.0 0.0 0.00 0.00 0.00 63 1013.9
20260906031212 85 156 0.0 0.0 0.00 0.00 0.00 62 1014.2
20260906030711 85 156 0.0 0.0 0.00 0.00 0.00 61 1013.9
20260906030206 85 156 0.0 0.0 0.00 0.00 0.00 61 1013.9
20260906025706 86 156 0.0 0.0 0.00 0.00 0.00 61 1013.9
20260906025200 86 156 0.0 0.0 0.00 0.00 0.00 60 1013.9
20260906024654 87 156 0.0 0.0 0.00 0.00 0.00 58 1013.6
20260906024153 87 156 0.0 0.0 0.00 0.00 0.00 55 1013.6
20260906023650 87 156 0.0 0.0 0.00 0.00 0.00 56 1013.9
20260906023149 87 156 0.0 0.0 0.00 0.00 0.00 56 1013.6
20260906022644 87 156 0.0 0.0 0.00 0.00 0.00 57 1013.9
20260906022140 87 156 0.0 0.0 0.00 0.00 0.00 57 1013.6
20260906021636 88 155 0.0 0.0 0.00 0.00 0.00 57 1013.6
20260906021134 88 156 0.0 0.0 0.00 0.00 0.00 56 1013.6
20260906020629 89 155 0.0 0.0 0.00 0.00 0.00 54 1012.9
20260906020124 89 155 0.0 0.0 0.00 0.00 0.00 53 1013.6
20260906015618 90 155 0.0 0.0 0.00 0.00 0.00 49 1012.9
20260906015117 90 155 0.0 0.0 0.00 0.00 0.00 49 1013.2
20260906014612 91 155 0.0 0.0 0.00 0.00 0.00 49 1013.2
20260906014108 91 155 0.0 0.0 0.00 0.00 0.00 48 1013.2
20260906013603 91 155 0.0 0.0 0.00 0.00 0.00 48 1013.2
20260906013058 91 155 0.0 0.0 0.00 0.00 0.00 48 1012.9
20260906012553 91 155 0.0 0.0 0.00 0.00 0.00 47 1012.9
20260906012053 91 155 0.0 0.0 0.00 0.00 0.00 47 1012.9
20260906011549 92 155 0.0 0.0 0.00 0.00 0.00 47 1012.9
20260906011049 92 155 0.0 0.0 0.00 0.00 0.00 47 1012.9
20260906010544 92 155 0.0 0.0 0.00 0.00 0.00 47 1012.9
20260906010041 93 155 0.0 0.0 0.00 0.00 0.00 45 1012.9
20260906005540 93 155 0.0 0.0 0.00 0.00 0.00 45 1012.9
20260906005039 94 155 0.0 0.0 0.00 0.00 0.00 44 1012.9
20260906004538 94 155 0.0 0.0 0.00 0.00 0.00 43 1012.5
20260906004033 95 155 0.0 0.0 0.00 0.00 0.00 43 1012.5
20260906003528 96 155 0.0 0.0 0.00 0.00 0.00 42 1012.9
20260906003024 96 155 0.0 0.0 0.00 0.00 0.00 41 1012.5
20260906002519 97 155 0.0 0.0 0.00 0.00 0.00 40 1012.5
20260906002014 98 155 0.0 0.0 0.00 0.00 0.00 39 1012.5
20260906001510 99 155 0.0 0.0 0.00 0.00 0.00 39 1012.9
20260906001004 99 155 0.0 0.0 0.00 0.00 0.00 38 1012.9
20260906000500 99 155 0.0 0.0 0.00 0.00 0.00 37 1012.5
20260905235959 100 155 0.0 0.0 0.00 0.00 0.00 37 1012.9
20260905235454 100 155 0.0 0.0 0.00 0.00 0.00 36 1012.9
20260905234949 100 155 0.0 0.0 0.00 0.00 0.00 36 1012.9
20260905234444 101 155 0.0 0.0 0.00 0.00 0.00 35 1012.9
20260905233938 100 155 0.0 0.0 0.00 0.00 0.00 36 1012.9
20260905233434 101 155 1.0 1.0 0.00 0.00 0.00 36 1012.9
20260905232932 100 160 0.0 0.0 0.00 0.00 0.00 35 1012.9
20260905232429 100 160 2.0 2.0 0.00 0.00 0.00 35 1012.5
20260905231924 97 175 0.0 0.0 0.00 0.00 0.00 35 1012.5
20260905231420 96 84 0.0 0.0 0.00 0.00 0.00 34 1012.9
20260905230917 99 60 0.0 0.0 0.00 0.00 0.00 34 1012.5
20260905230415 97 60 2.0 2.0 0.00 0.00 0.00 35 1012.9
20260905225913 97 30 0.0 0.0 0.00 0.00 0.00 34 1012.9
20260905225409 97 30 0.0 0.0 0.00 0.00 0.00 34 1012.9
20260905224903 97 30 1.0 1.0 0.00 0.00 0.00 33 1012.5
20260905224359 98 241 0.0 0.0 0.00 0.00 0.00 33 1012.5
20260905223854 98 241 0.0 0.0 0.00 0.00 0.00 33 1012.5
20260905223351 98 241 0.0 0.0 0.00 0.00 0.00 34 1012.9
20260905222846 98 241 1.0 1.0 0.00 0.00 0.00 33 1012.9
20260905222345 99 240 0.0 0.0 0.00 0.00 0.00 33 1012.9
20260905221841 100 132 0.0 0.0 0.00 0.00 0.00 32 1012.9
20260905221337 99 16 0.0 0.0 0.00 0.00 0.00 31 1012.9
20260905220833 97 41 0.0 0.0 0.00 0.00 0.00 32 1013.2
20260905220329 95 42 0.0 0.0 0.00 0.00 0.00 35 1012.9
20260905215828 95 60 0.0 0.0 0.00 0.00 0.00 36 1013.2
20260905215324 96 60 0.0 0.0 0.00 0.00 0.00 35 1013.2
20260905214821 99 60 0.0 0.0 0.00 0.00 0.00 34 1013.2
20260905214315 98 90 2.0 2.0 0.00 0.00 0.00 34 1012.9
20260905213810 98 108 2.0 2.0 0.00 0.00 0.00 33 1013.2
20260905213306 100 84 2.0 2.0 0.00 0.00 0.00 33 1013.2
20260905212801 99 94 2.0 2.0 0.00 0.00 0.00 33 1012.9
20260905212301 100 112 2.0 2.0 0.00 0.00 0.00 32 1013.2
20260905211755 100 40 2.0 2.0 0.00 0.00 0.00 30 1013.6
20260905211250 100 66 2.0 2.0 0.00 0.00 0.00 32 1013.2
20260905210747 101 78 4.0 4.0 0.00 0.00 0.00 31 1013.6
20260905210247 100 270 0.0 0.0 0.00 0.00 0.00 32 1013.6
20260905205745 100 276 2.0 2.0 0.00 0.00 0.00 33 1013.9
20260905205240 101 270 0.0 0.0 0.00 0.00 0.00 33 1013.9
20260905204740 100 168 1.0 1.0 0.00 0.00 0.00 33 1013.9
20260905204236 103 270 0.0 0.0 0.00 0.00 0.00 33 1013.9
20260905203735 103 138 0.0 0.0 0.00 0.00 0.00 33 1014.2
20260905203231 102 282 1.0 1.0 0.00 0.00 0.00 32 1014.2
20260905202726 100 288 2.0 2.0 0.00 0.00 0.00 33 1014.2
20260905202221 101 324 2.0 2.0 0.00 0.00 0.00 32 1014.2
20260905201716 101 36 0.0 0.0 0.00 0.00 0.00 33 1014.2
20260905201211 99 30 3.0 4.0 0.00 0.00 0.00 34 1014.7
20260905200706 97 318 2.0 2.0 0.00 0.00 0.00 36 1014.2
20260905200202 97 306 0.0 0.0 0.00 0.00 0.00 36 1014.7
20260905195700 97 30 0.0 0.0 0.00 0.00 0.00 34 1014.7
20260905195155 95 186 1.0 1.0 0.00 0.00 0.00 36 1014.7
20260905194650 94 10 2.0 2.0 0.00 0.00 0.00 38 1014.7
20260905194149 94 41 0.0 0.0 0.00 0.00 0.00 39 1014.7
20260905193644 94 90 2.0 2.0 0.00 0.00 0.00 38 1014.7
20260905193139 94 184 0.0 0.0 0.00 0.00 0.00 39 1015.0
20260905192634 96 179 0.0 0.0 0.00 0.00 0.00 37 1015.0
20260905192131 96 179 0.0 0.0 0.00 0.00 0.00 37 1015.0
20260905191630 96 240 0.0 0.0 0.00 0.00 0.00 38 1015.0
20260905191128 96 84 2.0 2.0 0.00 0.00 0.00 37 1015.4
20260905190627 95 90 4.0 4.0 0.00 0.00 0.00 37 1015.0
20260905190126 96 18 2.0 2.0 0.00 0.00 0.00 38 1015.4
20260905185625 96 90 3.0 4.0 0.00 0.00 0.00 40 1015.4
20260905185120 97 102 1.0 1.0 0.00 0.00 0.00 39 1015.4
20260905184615 98 162 2.0 2.0 0.00 0.00 0.00 37 1015.4
20260905184114 96 24 2.0 2.0 0.00 0.00 0.00 37 1015.7
20260905183612 96 216 2.0 2.0 0.00 0.00 0.00 37 1015.7
20260905183108 95 192 0.0 0.0 0.00 0.00 0.00 39 1015.7
20260905182608 97 113 1.0 1.0 0.00 0.00 0.00 39 1015.7
20260905182103 96 24 0.0 0.0 0.00 0.00 0.00 39 1015.7
20260905181602 96 15 0.0 0.0 0.00 0.00 0.00 38 1016.0